Flag for Australia Weather past 2 weeks in The Settlement, Christmas Island, Australia

Now
75 °F

Passing clouds.


Feels Like: 75 °F
Forecast: 76 / 82 °F
Wind: N/A

Location: Christmas Island Aerodrome

Current Time: Oct 24, 2014 at 6:29:01 PM

Latest Report: Oct 24, 2014 at 6:00 PM


Visibility: N/A

Pressure: 29.92 "Hg

Humidity: 89%

Dew point: 72 °F

Location of The SettlementLocation

Historic Weather in The Settlement — Graph

°F

The Settlement temperature yesterday

Maximum temperature yesterday: 79 °F (at 10:00 AM)
Minimum temperature yesterday: 75 °F (at 12:00 AM)
Average temperature yesterday: 76 °F

Past Weeks' High & Low Weather Summary

 TemperatureHumidityPressure
High81 °F (Oct 11, 11:00 AM)100% (Oct 14, 10:00 AM)30.04 "Hg (Oct 14, 10:00 AM)
Low73 °F (Oct 9, 11:54 PM)65% (Oct 10, 9:00 AM)29.89 "Hg (Oct 10, 4:04 PM)
Average76 °F84%29.96 "Hg
* Reported Oct 9 5:00 PM — Oct 24 5:00 PM, The Settlement, Weather by CustomWeather, © 2014

Note: Actual official high and low records may vary slightly from our data, if they occured in-between our weather recording intervals... More about our weather records

Advertising

The Settlement weather history for previous 24 hours

 ConditionsComfort  
Time TempWeatherWind HumidityBarometerVisibility
5:00 PM
Oct 24
77 °FPartly sunny.N/A79%29.89 "HgN/A
4:00 PM79 °FPartly sunny.N/A74%29.89 "HgN/A
3:00 PM79 °FScattered clouds.N/A74%29.92 "HgN/A
2:02 PM81 °FBroken clouds.N/A70%29.92 "HgN/A
1:04 PM81 °FBroken clouds.N/A70%29.92 "HgN/A
12:02 PM81 °FBroken clouds.N/A70%29.95 "HgN/A
11:00 AM81 °FPartly sunny.N/A66%29.98 "HgN/A
10:00 AM79 °FScattered clouds.N/A70%29.98 "HgN/A
9:00 AM79 °FScattered clouds.N/A70%29.98 "HgN/A
8:00 AM79 °FPartly sunny.N/A70%29.98 "HgN/A
7:00 AM77 °FPartly sunny.N/A79%29.98 "HgN/A
6:00 AM75 °FMostly cloudy.N/A83%29.95 "HgN/A
5:00 AM75 °FMostly cloudy.N/A83%29.95 "HgN/A
4:00 AM73 °FPartly cloudy.N/A89%29.95 "HgN/A
3:00 AM73 °FPassing clouds.N/A83%29.92 "HgN/A
2:00 AM75 °FPassing clouds.N/A83%29.95 "HgN/A
1:00 AM73 °FPassing clouds.N/A89%29.95 "HgN/A
12:00 AM75 °FPassing clouds.N/A78%29.98 "HgN/A
11:59 PM
Oct 23
75 °FPassing clouds.N/A78%29.98 "HgN/A
11:00 PM75 °FPassing clouds.N/A83%29.98 "HgN/A
10:30 PM75 °FPassing clouds.N/A83%29.98 "HgN/A
10:00 PM75 °FPassing clouds.N/A83%30.01 "HgN/A
9:00 PM75 °FPassing clouds.N/A78%29.98 "HgN/A
8:00 PM75 °FPassing clouds.N/A83%29.98 "HgN/A
7:00 PM75 °FPassing clouds.N/A83%29.95 "HgN/A
6:00 PM75 °FPassing clouds.N/A83%29.95 "HgN/A
Weather by CustomWeather, © 2014

See weather overviewHow to use our weather pages